Climatologie pour Saint-Brevin les Pins
Jour • Résumé pour mars 6, 2017 Système :  Métrique    Anglais   Mixte
« - 1 jour
+ 1 jour »
Jour Semaine Mois Année Personnalisé
  Maximum : Minimum : Moyenne :
Température sous abri : 12.8 °C 8.6 °C 10.2 °C
Point de rosée : 10.4 °C 5.2 °C 7.1 °C
Humidité : 98 % 63 % 82 %
Vitesse du vent : 75.6 km/h 1.6 km/h 18.2 km/h
Rafale : 93.3 km/h - -
Direction :- - West
Pression : 1021.6 hPa 1001.9 hPa -
Précipitations : 4.3 mm    
Historical Graphs
 
 
Tableau de données pour mars 6, 2017
Heure Tempé Pt rosée Pression Vent Vitesse Rafale Humidité Taux pluie (/hr) Soleil
00:00 9.6 °C 8.6 °C 1010.0 hPa West 3.2 km/h 12.9 km/h 94 % 0.0 mm 0 W/m2
00:05 9.6 °C 8.6 °C 1010.0 hPa West 4.8 km/h 12.9 km/h 94 % 0.0 mm 0 W/m2
00:10 9.7 °C 8.7 °C 1010.0 hPa West 4.8 km/h 11.3 km/h 94 % 0.0 mm 0 W/m2
00:15 9.7 °C 8.6 °C 1010.0 hPa WNW 3.2 km/h 12.9 km/h 93 % 0.0 mm 0 W/m2
00:20 9.7 °C 8.6 °C 1010.0 hPa WNW 12.9 km/h 16.1 km/h 93 % 0.0 mm 0 W/m2
00:25 9.7 °C 8.6 °C 1010.0 hPa West 4.8 km/h 16.1 km/h 93 % 0.0 mm 0 W/m2
00:30 9.7 °C 8.6 °C 1010.0 hPa West 4.8 km/h 14.5 km/h 93 % 0.0 mm 0 W/m2
00:35 9.7 °C 8.6 °C 1009.7 hPa West 6.4 km/h 14.5 km/h 93 % 0.0 mm 0 W/m2
00:40 9.7 °C 8.6 °C 1010.0 hPa WSW 3.2 km/h 12.9 km/h 93 % 0.0 mm 0 W/m2
00:45 9.7 °C 8.7 °C 1009.7 hPa West 4.8 km/h 11.3 km/h 94 % 0.0 mm 0 W/m2
00:50 9.6 °C 8.6 °C 1009.7 hPa WSW 3.2 km/h 11.3 km/h 94 % 0.0 mm 0 W/m2
00:55 9.6 °C 8.7 °C 1009.7 hPa West 1.6 km/h 9.7 km/h 94 % 0.0 mm 0 W/m2
01:00 9.7 °C 8.9 °C 1009.7 hPa WSW 4.8 km/h 9.7 km/h 95 % 0.0 mm 0 W/m2
01:05 9.6 °C 8.8 °C 1009.4 hPa SW 8.0 km/h 9.7 km/h 95 % 0.0 mm 0 W/m2
01:10 9.6 °C 8.8 °C 1009.4 hPa West 3.2 km/h 12.9 km/h 95 % 0.0 mm 0 W/m2
01:15 9.6 °C 8.8 °C 1009.4 hPa SW 4.8 km/h 12.9 km/h 95 % 0.0 mm 0 W/m2
01:20 9.7 °C 8.9 °C 1009.4 hPa SW 6.4 km/h 14.5 km/h 95 % 0.0 mm 0 W/m2
01:25 9.7 °C 9.0 °C 1009.4 hPa WSW 6.4 km/h 14.5 km/h 95 % 0.0 mm 0 W/m2
01:30 9.7 °C 9.0 °C 1009.4 hPa WSW 6.4 km/h 12.9 km/h 95 % 0.0 mm 0 W/m2
01:40 9.7 °C 9.0 °C 1009.0 hPa SW 3.2 km/h 9.7 km/h 95 % 0.0 mm 0 W/m2
01:45 9.7 °C 8.9 °C 1009.4 hPa WSW 1.6 km/h 12.9 km/h 95 % 0.0 mm 0 W/m2
01:50 9.7 °C 9.0 °C 1009.4 hPa WSW 4.8 km/h 12.9 km/h 95 % 0.0 mm 0 W/m2
01:55 9.8 °C 9.0 °C 1009.4 hPa WSW 9.7 km/h 14.5 km/h 95 % 0.0 mm 0 W/m2
02:00 9.8 °C 9.0 °C 1009.0 hPa West 11.3 km/h 16.1 km/h 95 % 0.0 mm 0 W/m2
02:05 9.8 °C 8.9 °C 1009.0 hPa WSW 11.3 km/h 16.1 km/h 94 % 0.0 mm 0 W/m2
02:10 9.8 °C 8.9 °C 1009.0 hPa WSW 11.3 km/h 16.1 km/h 94 % 0.0 mm 0 W/m2
02:15 9.9 °C 9.0 °C 1009.0 hPa SW 4.8 km/h 16.1 km/h 94 % 0.0 mm 0 W/m2
02:20 9.9 °C 8.8 °C 1008.7 hPa WSW 8.0 km/h 14.5 km/h 93 % 0.0 mm 0 W/m2
02:25 9.8 °C 8.8 °C 1008.7 hPa SW 3.2 km/h 9.7 km/h 93 % 0.0 mm 0 W/m2
02:30 9.8 °C 8.8 °C 1008.4 hPa SW 4.8 km/h 11.3 km/h 93 % 0.0 mm 0 W/m2
02:35 9.8 °C 8.9 °C 1008.7 hPa South 6.4 km/h 12.9 km/h 94 % 0.0 mm 0 W/m2
02:40 9.8 °C 8.9 °C 1008.4 hPa SSW 9.7 km/h 12.9 km/h 94 % 0.0 mm 0 W/m2
02:45 9.8 °C 8.9 °C 1008.4 hPa South 6.4 km/h 12.9 km/h 94 % 0.0 mm 0 W/m2
02:50 9.9 °C 9.0 °C 1008.4 hPa SW 3.2 km/h 11.3 km/h 94 % 0.0 mm 0 W/m2
02:55 9.8 °C 8.9 °C 1008.0 hPa WSW 8.0 km/h 11.3 km/h 94 % 0.0 mm 0 W/m2
03:00 9.8 °C 9.1 °C 1008.0 hPa SSW 4.8 km/h 11.3 km/h 95 % 0.0 mm 0 W/m2
03:05 9.8 °C 9.0 °C 1008.0 hPa WSW 4.8 km/h 9.7 km/h 95 % 0.0 mm 0 W/m2
03:10 9.7 °C 9.0 °C 1007.7 hPa SSW 9.7 km/h 9.7 km/h 95 % 0.0 mm 0 W/m2
03:15 9.7 °C 8.9 °C 1007.7 hPa SW 6.4 km/h 9.7 km/h 95 % 0.0 mm 0 W/m2
03:20 9.6 °C 8.8 °C 1007.7 hPa WSW 1.6 km/h 9.7 km/h 95 % 0.0 mm 0 W/m2
03:25 9.6 °C 8.8 °C 1007.7 hPa SSW 8.0 km/h 11.3 km/h 95 % 0.0 mm 0 W/m2
03:30 9.6 °C 8.6 °C 1007.7 hPa SW 4.8 km/h 11.3 km/h 94 % 0.0 mm 0 W/m2
03:35 9.5 °C 8.6 °C 1007.7 hPa SW 8.0 km/h 17.7 km/h 94 % 0.0 mm 0 W/m2
03:40 9.4 °C 8.5 °C 1007.7 hPa SW 4.8 km/h 17.7 km/h 94 % 0.0 mm 0 W/m2
03:45 9.4 °C 8.5 °C 1007.7 hPa SW 3.2 km/h 14.5 km/h 94 % 0.0 mm 0 W/m2
03:50 9.3 °C 8.4 °C 1007.7 hPa SSW 4.8 km/h 12.9 km/h 94 % 0.0 mm 0 W/m2
03:55 9.2 °C 8.3 °C 1007.3 hPa SW 8.0 km/h 14.5 km/h 94 % 0.0 mm 0 W/m2
04:00 9.1 °C 8.2 °C 1007.3 hPa SSW 4.8 km/h 14.5 km/h 94 % 0.0 mm 0 W/m2
04:05 9.1 °C 8.3 °C 1007.3 hPa WSW 6.4 km/h 14.5 km/h 95 % 0.3 mm 0 W/m2
04:10 9.1 °C 8.3 °C 1007.0 hPa SSW 4.8 km/h 12.9 km/h 95 % 0.5 mm 0 W/m2
04:20 8.9 °C 8.3 °C 1007.0 hPa SW 6.4 km/h 16.1 km/h 96 % 0.5 mm 0 W/m2
04:25 8.9 °C 8.3 °C 1007.0 hPa SW 4.8 km/h 16.1 km/h 96 % 0.5 mm 0 W/m2
04:30 8.9 °C 8.3 °C 1006.7 hPa WSW 6.4 km/h 14.5 km/h 96 % 0.8 mm 0 W/m2
04:35 8.9 °C 8.3 °C 1006.3 hPa SSW 4.8 km/h 14.5 km/h 96 % 0.8 mm 0 W/m2
04:40 8.8 °C 8.2 °C 1006.3 hPa SW 6.4 km/h 16.1 km/h 96 % 1.0 mm 0 W/m2
04:45 8.7 °C 8.1 °C 1006.0 hPa SW 3.2 km/h 16.1 km/h 96 % 1.3 mm 0 W/m2
04:50 8.7 °C 8.2 °C 1006.0 hPa WSW 1.6 km/h 11.3 km/h 97 % 1.3 mm 0 W/m2
04:55 8.7 °C 8.2 °C 1005.3 hPa SSW 4.8 km/h 11.3 km/h 97 % 1.3 mm 0 W/m2
05:00 8.7 °C 8.2 °C 1005.6 hPa SSW 4.8 km/h 11.3 km/h 97 % 1.5 mm 0 W/m2
05:05 8.7 °C 8.2 °C 1005.6 hPa SW 4.8 km/h 11.3 km/h 97 % 1.5 mm 0 W/m2
05:10 8.7 °C 8.2 °C 1005.0 hPa SSW 8.0 km/h 9.7 km/h 97 % 1.5 mm 0 W/m2
05:15 8.7 °C 8.3 °C 1004.6 hPa SSW 11.3 km/h 12.9 km/h 97 % 1.5 mm 0 W/m2
05:20 8.8 °C 8.4 °C 1005.0 hPa South 3.2 km/h 17.7 km/h 97 % 1.5 mm 0 W/m2
05:25 8.9 °C 8.5 °C 1005.0 hPa SSW 4.8 km/h 17.7 km/h 97 % 1.5 mm 0 W/m2
05:30 9.0 °C 8.5 °C 1005.0 hPa SSW 6.4 km/h 14.5 km/h 97 % 1.3 mm 0 W/m2
05:35 9.0 °C 8.5 °C 1004.6 hPa South 6.4 km/h 14.5 km/h 97 % 1.3 mm 0 W/m2
05:40 9.0 °C 8.5 °C 1004.6 hPa South 8.0 km/h 19.3 km/h 97 % 1.3 mm 0 W/m2
05:45 9.0 °C 8.5 °C 1004.3 hPa SSW 12.9 km/h 19.3 km/h 97 % 1.3 mm 0 W/m2
05:50 8.9 °C 8.5 °C 1004.3 hPa SSW 8.0 km/h 16.1 km/h 97 % 1.3 mm 0 W/m2
05:55 8.9 °C 8.4 °C 1003.9 hPa South 11.3 km/h 16.1 km/h 97 % 1.5 mm 0 W/m2
06:00 8.9 °C 8.4 °C 1003.6 hPa South 12.9 km/h 24.1 km/h 97 % 1.3 mm 0 W/m2
06:05 8.9 °C 8.4 °C 1003.3 hPa SW 6.4 km/h 25.7 km/h 97 % 1.3 mm 0 W/m2
06:10 8.9 °C 8.4 °C 1003.3 hPa SSW 3.2 km/h 25.7 km/h 97 % 1.0 mm 0 W/m2
06:15 8.9 °C 8.6 °C 1003.3 hPa SSW 12.9 km/h 20.9 km/h 98 % 0.8 mm 0 W/m2
06:20 9.0 °C 8.7 °C 1003.3 hPa South 14.5 km/h 22.5 km/h 98 % 0.8 mm 0 W/m2
06:25 9.1 °C 8.6 °C 1002.9 hPa South 17.7 km/h 25.7 km/h 97 % 0.8 mm 0 W/m2
06:30 9.1 °C 8.7 °C 1002.9 hPa SSW 20.9 km/h 25.7 km/h 97 % 0.8 mm 0 W/m2
06:35 9.2 °C 8.7 °C 1002.9 hPa South 17.7 km/h 25.7 km/h 97 % 0.8 mm 0 W/m2
06:40 9.2 °C 8.9 °C 1002.9 hPa SSW 14.5 km/h 24.1 km/h 98 % 0.5 mm 0 W/m2
06:45 9.2 °C 8.9 °C 1002.6 hPa SW 9.7 km/h 22.5 km/h 98 % 0.5 mm 0 W/m2
06:50 9.3 °C 9.0 °C 1002.6 hPa SW 11.3 km/h 22.5 km/h 98 % 0.5 mm 0 W/m2
06:55 9.3 °C 9.0 °C 1001.9 hPa SSW 11.3 km/h 22.5 km/h 98 % 0.5 mm 0 W/m2
07:00 9.4 °C 9.1 °C 1002.3 hPa SSW 17.7 km/h 27.4 km/h 98 % 0.5 mm 0 W/m2
07:05 9.6 °C 9.3 °C 1001.9 hPa South 16.1 km/h 27.4 km/h 98 % 0.5 mm 0 W/m2
07:10 9.7 °C 9.4 °C 1001.9 hPa WSW 24.1 km/h 24.1 km/h 98 % 0.8 mm 0 W/m2
07:15 9.8 °C 9.5 °C 1002.3 hPa SW 24.1 km/h 35.4 km/h 98 % 0.8 mm 0 W/m2
07:20 10.3 °C 10.0 °C 1001.9 hPa NW 16.1 km/h 45.1 km/h 98 % 1.0 mm 0 W/m2
07:25 10.6 °C 10.3 °C 1001.9 hPa WNW 11.3 km/h 45.1 km/h 98 % 1.0 mm 0 W/m2
07:30 10.7 °C 10.4 °C 1001.9 hPa WNW 24.1 km/h 40.2 km/h 98 % 1.0 mm 0 W/m2
07:40 10.7 °C 10.2 °C 1002.3 hPa WNW 43.4 km/h 53.1 km/h 97 % 1.3 mm 0 W/m2
07:45 10.3 °C 9.8 °C 1002.6 hPa NW 35.4 km/h 56.3 km/h 97 % 1.3 mm 0 W/m2
07:50 10.3 °C 9.9 °C 1002.6 hPa West 17.7 km/h 56.3 km/h 97 % 1.3 mm 7 W/m2
07:55 10.3 °C 9.8 °C 1002.9 hPa West 29.0 km/h 45.1 km/h 97 % 0.8 mm 11 W/m2
08:00 9.9 °C 9.2 °C 1002.9 hPa WNW 16.1 km/h 61.1 km/h 95 % 1.0 mm 21 W/m2
08:05 9.7 °C 8.6 °C 1002.6 hPa WNW 25.7 km/h 61.1 km/h 93 % 1.0 mm 16 W/m2
08:10 9.7 °C 8.3 °C 1002.6 hPa NW 33.8 km/h 59.5 km/h 91 % 0.5 mm 30 W/m2
08:15 9.7 °C 8.0 °C 1002.6 hPa WNW 27.4 km/h 56.3 km/h 89 % 0.5 mm 42 W/m2
08:20 9.6 °C 7.0 °C 1002.6 hPa NW 17.7 km/h 53.1 km/h 84 % 0.5 mm 49 W/m2
08:25 9.6 °C 6.7 °C 1002.6 hPa NW 37.0 km/h 53.1 km/h 82 % 0.5 mm 60 W/m2
08:30 9.8 °C 6.7 °C 1002.6 hPa WNW 43.4 km/h 62.8 km/h 81 % 0.5 mm 44 W/m2
08:35 9.9 °C 6.7 °C 1002.6 hPa WNW 75.6 km/h 75.6 km/h 80 % 0.5 mm 25 W/m2
08:40 10.0 °C 6.5 °C 1002.3 hPa WNW 35.4 km/h 75.6 km/h 79 % 0.3 mm 28 W/m2
08:45 10.1 °C 6.6 °C 1002.3 hPa NW 16.1 km/h 75.6 km/h 79 % 0.3 mm 102 W/m2
08:50 10.1 °C 6.4 °C 1002.3 hPa NW 17.7 km/h 64.4 km/h 78 % 0.3 mm 53 W/m2
08:55 10.1 °C 6.6 °C 1002.3 hPa WNW 27.4 km/h 75.6 km/h 79 % 0.3 mm 35 W/m2
09:00 10.1 °C 6.6 °C 1002.3 hPa WNW 46.7 km/h 75.6 km/h 79 % 0.0 mm 49 W/m2
09:10 10.1 °C 6.8 °C 1002.3 hPa WNW 45.1 km/h 70.8 km/h 80 % 0.0 mm 60 W/m2
09:15 10.1 °C 6.6 °C 1002.3 hPa WNW 38.6 km/h 77.2 km/h 79 % 0.0 mm 83 W/m2
09:20 10.1 °C 6.6 °C 1002.3 hPa WNW 56.3 km/h 77.2 km/h 79 % 0.0 mm 84 W/m2
09:30 10.1 °C 6.8 °C 1002.3 hPa WSW 61.1 km/h 69.2 km/h 80 % 0.0 mm 74 W/m2
09:35 10.1 °C 7.0 °C 1002.3 hPa West 49.9 km/h 69.2 km/h 81 % 0.0 mm 109 W/m2
09:40 10.2 °C 7.1 °C 1002.6 hPa NW 12.9 km/h 72.4 km/h 81 % 0.0 mm 151 W/m2
09:45 10.2 °C 6.9 °C 1002.6 hPa WNW 40.2 km/h 74.0 km/h 80 % 0.0 mm 134 W/m2
09:50 10.2 °C 7.1 °C 1002.9 hPa WNW 22.5 km/h 74.0 km/h 81 % 0.0 mm 88 W/m2
09:55 10.1 °C 6.8 °C 1002.9 hPa West 43.4 km/h 77.2 km/h 80 % 0.0 mm 90 W/m2
10:00 10.2 °C 6.9 °C 1002.9 hPa West 27.4 km/h 77.2 km/h 80 % 0.0 mm 223 W/m2
10:05 10.3 °C 6.8 °C 1003.3 hPa NW 20.9 km/h 86.9 km/h 79 % 0.0 mm 357 W/m2
10:10 10.4 °C 6.5 °C 1003.6 hPa NW 24.1 km/h 86.9 km/h 77 % 0.0 mm 193 W/m2
10:15 10.3 °C 6.3 °C 1003.6 hPa NW 59.5 km/h 93.3 km/h 76 % 0.0 mm 176 W/m2
10:20 10.5 °C 6.4 °C 1003.9 hPa NNW 61.1 km/h 93.3 km/h 76 % 0.0 mm 362 W/m2
10:25 10.7 °C 6.4 °C 1003.9 hPa WNW 35.4 km/h 82.1 km/h 75 % 0.0 mm 436 W/m2
10:30 10.7 °C 6.5 °C 1004.3 hPa NW 24.1 km/h 82.1 km/h 75 % 0.0 mm 211 W/m2
10:35 10.7 °C 6.6 °C 1004.3 hPa NW 32.2 km/h 64.4 km/h 76 % 0.0 mm 185 W/m2
10:40 10.6 °C 6.7 °C 1004.3 hPa West 29.0 km/h 57.9 km/h 77 % 0.0 mm 142 W/m2
10:45 10.6 °C 6.9 °C 1004.6 hPa West 27.4 km/h 74.0 km/h 78 % 0.0 mm 142 W/m2
10:50 10.8 °C 7.0 °C 1005.0 hPa NW 33.8 km/h 74.0 km/h 77 % 0.0 mm 482 W/m2
10:55 10.8 °C 6.4 °C 1005.0 hPa WNW 57.9 km/h 74.0 km/h 74 % 0.0 mm 279 W/m2
11:00 10.9 °C 6.7 °C 1005.3 hPa NW 20.9 km/h 74.0 km/h 75 % 0.0 mm 448 W/m2
11:05 11.1 °C 6.6 °C 1005.6 hPa WSW 22.5 km/h 72.4 km/h 74 % 0.0 mm 469 W/m2
11:10 11.2 °C 6.7 °C 1005.6 hPa NNW 38.6 km/h 74.0 km/h 74 % 0.0 mm 492 W/m2
11:15 11.2 °C 6.6 °C 1006.0 hPa NW 48.3 km/h 77.2 km/h 73 % 0.0 mm 492 W/m2
11:20 11.3 °C 6.9 °C 1006.0 hPa WNW 35.4 km/h 77.2 km/h 74 % 0.0 mm 519 W/m2
11:25 11.4 °C 6.8 °C 1006.3 hPa WNW 24.1 km/h 69.2 km/h 73 % 0.0 mm 522 W/m2
11:30 11.5 °C 6.6 °C 1006.7 hPa WNW 49.9 km/h 74.0 km/h 72 % 0.0 mm 563 W/m2
11:35 11.6 °C 6.7 °C 1007.0 hPa NNE 40.2 km/h 74.0 km/h 72 % 0.0 mm 701 W/m2
11:40 11.7 °C 6.8 °C 1007.0 hPa NW 37.0 km/h 64.4 km/h 72 % 0.0 mm 643 W/m2
11:45 11.8 °C 7.1 °C 1007.7 hPa NW 22.5 km/h 64.4 km/h 73 % 0.0 mm 668 W/m2
11:50 11.8 °C 6.9 °C 1008.0 hPa West 32.2 km/h 61.1 km/h 72 % 0.0 mm 668 W/m2
11:55 12.1 °C 7.2 °C 1008.4 hPa NW 22.5 km/h 54.7 km/h 72 % 0.0 mm 475 W/m2
12:00 11.8 °C 6.7 °C 1008.4 hPa NNW 20.9 km/h 56.3 km/h 71 % 0.0 mm 276 W/m2
12:05 11.8 °C 6.5 °C 1008.7 hPa NW 33.8 km/h 59.5 km/h 70 % 0.0 mm 341 W/m2
12:10 11.6 °C 6.3 °C 1009.0 hPa NNW 32.2 km/h 59.5 km/h 70 % 0.0 mm 260 W/m2
12:15 11.7 °C 6.4 °C 1009.0 hPa NW 48.3 km/h 61.1 km/h 70 % 0.0 mm 482 W/m2
12:20 11.5 °C 6.0 °C 1009.4 hPa NNW 24.1 km/h 61.1 km/h 69 % 0.0 mm 304 W/m2
12:25 11.8 °C 6.3 °C 1009.7 hPa NNW 25.7 km/h 61.1 km/h 69 % 0.0 mm 408 W/m2
12:30 11.6 °C 5.8 °C 1010.0 hPa NNW 22.5 km/h 61.1 km/h 68 % 0.0 mm 257 W/m2
12:40 11.5 °C 6.0 °C 1010.7 hPa NW 19.3 km/h 56.3 km/h 69 % 0.0 mm 229 W/m2
12:45 11.4 °C 6.0 °C 1010.7 hPa NNW 56.3 km/h 56.3 km/h 69 % 0.0 mm 237 W/m2
12:50 11.5 °C 6.2 °C 1011.1 hPa NW 33.8 km/h 56.3 km/h 70 % 0.0 mm 274 W/m2
12:55 11.9 °C 6.4 °C 1011.4 hPa NNW 24.1 km/h 56.3 km/h 69 % 0.0 mm 383 W/m2
13:00 11.7 °C 5.8 °C 1011.7 hPa NNW 19.3 km/h 54.7 km/h 67 % 0.0 mm 570 W/m2
13:05 12.1 °C 6.5 °C 1012.1 hPa North 25.7 km/h 54.7 km/h 69 % 0.0 mm 325 W/m2
13:10 12.1 °C 5.9 °C 1012.1 hPa NW 17.7 km/h 46.7 km/h 66 % 0.0 mm 336 W/m2
13:15 12.0 °C 6.1 °C 1012.4 hPa NNW 32.2 km/h 61.1 km/h 67 % 0.0 mm 529 W/m2
13:20 12.3 °C 6.4 °C 1012.4 hPa North 22.5 km/h 61.1 km/h 67 % 0.0 mm 610 W/m2
13:25 12.3 °C 6.3 °C 1012.8 hPa WNW 35.4 km/h 45.1 km/h 67 % 0.0 mm 504 W/m2
13:30 11.8 °C 5.5 °C 1012.8 hPa NNW 29.0 km/h 61.1 km/h 65 % 0.0 mm 299 W/m2
13:35 11.3 °C 6.0 °C 1013.1 hPa WNW 16.1 km/h 61.1 km/h 70 % 0.0 mm 294 W/m2
13:40 11.1 °C 6.3 °C 1013.1 hPa WNW 32.2 km/h 53.1 km/h 72 % 0.0 mm 594 W/m2
13:45 11.7 °C 6.8 °C 1013.1 hPa West 14.5 km/h 46.7 km/h 72 % 0.0 mm 543 W/m2
13:50 11.6 °C 6.5 °C 1013.4 hPa NW 12.9 km/h 51.5 km/h 71 % 0.0 mm 246 W/m2
13:55 12.1 °C 7.4 °C 1013.1 hPa NW 12.9 km/h 51.5 km/h 73 % 0.0 mm 388 W/m2
14:00 12.4 °C 6.4 °C 1013.4 hPa NW 19.3 km/h 41.8 km/h 67 % 0.0 mm 483 W/m2
14:05 12.5 °C 6.8 °C 1013.4 hPa NW 20.9 km/h 41.8 km/h 68 % 0.0 mm 598 W/m2
14:10 12.7 °C 6.9 °C 1013.4 hPa NW 20.9 km/h 54.7 km/h 68 % 0.0 mm 578 W/m2
14:15 12.8 °C 6.8 °C 1013.8 hPa NW 17.7 km/h 54.7 km/h 67 % 0.0 mm 471 W/m2
14:20 12.7 °C 6.7 °C 1013.8 hPa NW 27.4 km/h 48.3 km/h 67 % 0.0 mm 513 W/m2
14:25 12.8 °C 6.8 °C 1013.8 hPa NNW 29.0 km/h 48.3 km/h 67 % 0.0 mm 466 W/m2
14:30 12.7 °C 6.5 °C 1014.1 hPa NW 27.4 km/h 48.3 km/h 66 % 0.0 mm 371 W/m2
14:35 12.3 °C 5.9 °C 1014.1 hPa WNW 19.3 km/h 45.1 km/h 65 % 0.0 mm 431 W/m2
14:40 12.4 °C 6.4 °C 1014.1 hPa NW 17.7 km/h 45.1 km/h 67 % 0.0 mm 515 W/m2
14:45 12.6 °C 6.1 °C 1014.1 hPa NW 27.4 km/h 43.4 km/h 65 % 0.0 mm 482 W/m2
14:50 12.4 °C 6.7 °C 1014.4 hPa NW 16.1 km/h 43.4 km/h 68 % 0.0 mm 452 W/m2
14:55 12.6 °C 6.6 °C 1014.1 hPa WNW 27.4 km/h 43.4 km/h 67 % 0.0 mm 494 W/m2
15:00 12.5 °C 6.3 °C 1014.4 hPa WNW 17.7 km/h 45.1 km/h 66 % 0.0 mm 494 W/m2
15:05 12.3 °C 6.1 °C 1014.8 hPa NW 30.6 km/h 46.7 km/h 66 % 0.0 mm 404 W/m2
15:10 12.4 °C 6.6 °C 1014.8 hPa NW 29.0 km/h 51.5 km/h 68 % 0.0 mm 420 W/m2
15:15 12.4 °C 6.3 °C 1014.8 hPa NW 19.3 km/h 51.5 km/h 66 % 0.0 mm 543 W/m2
15:20 12.7 °C 6.3 °C 1014.8 hPa NW 35.4 km/h 49.9 km/h 65 % 0.0 mm 476 W/m2
15:25 12.4 °C 5.5 °C 1014.8 hPa NW 22.5 km/h 49.9 km/h 63 % 0.0 mm 452 W/m2
15:30 12.4 °C 5.6 °C 1014.8 hPa WNW 38.6 km/h 49.9 km/h 63 % 0.0 mm 424 W/m2
15:35 12.2 °C 5.8 °C 1014.8 hPa WNW 14.5 km/h 46.7 km/h 65 % 0.0 mm 446 W/m2
15:40 12.4 °C 7.1 °C 1015.1 hPa NW 11.3 km/h 46.7 km/h 70 % 0.0 mm 436 W/m2
15:45 12.5 °C 7.2 °C 1015.1 hPa NW 14.5 km/h 43.4 km/h 70 % 0.0 mm 454 W/m2
15:50 12.3 °C 7.0 °C 1015.1 hPa NW 9.7 km/h 51.5 km/h 70 % 0.0 mm 420 W/m2
15:55 12.3 °C 7.2 °C 1015.5 hPa NW 19.3 km/h 51.5 km/h 71 % 0.0 mm 417 W/m2
16:00 12.2 °C 7.1 °C 1015.5 hPa WNW 17.7 km/h 45.1 km/h 71 % 0.0 mm 387 W/m2
16:05 12.0 °C 6.5 °C 1015.5 hPa WNW 11.3 km/h 45.1 km/h 69 % 0.0 mm 348 W/m2
16:10 11.6 °C 6.1 °C 1015.5 hPa NW 16.1 km/h 53.1 km/h 69 % 0.0 mm 325 W/m2
16:15 11.6 °C 6.7 °C 1015.8 hPa WNW 30.6 km/h 53.1 km/h 72 % 0.0 mm 390 W/m2
16:20 11.7 °C 6.6 °C 1015.5 hPa WNW 16.1 km/h 51.5 km/h 71 % 0.0 mm 353 W/m2
16:25 11.6 °C 6.5 °C 1015.5 hPa West 32.2 km/h 45.1 km/h 71 % 0.0 mm 329 W/m2
16:30 11.6 °C 6.5 °C 1015.8 hPa NW 20.9 km/h 45.1 km/h 71 % 0.0 mm 323 W/m2
16:35 11.6 °C 6.7 °C 1015.8 hPa NNW 12.9 km/h 40.2 km/h 72 % 0.0 mm 313 W/m2
16:40 11.7 °C 6.8 °C 1016.1 hPa WNW 16.1 km/h 43.4 km/h 72 % 0.0 mm 295 W/m2
16:45 11.6 °C 6.7 °C 1016.1 hPa NW 8.0 km/h 43.4 km/h 72 % 0.0 mm 243 W/m2
16:50 11.5 °C 6.8 °C 1016.1 hPa NNW 16.1 km/h 45.1 km/h 73 % 0.0 mm 163 W/m2
16:55 11.3 °C 6.7 °C 1016.1 hPa NW 19.3 km/h 45.1 km/h 73 % 0.0 mm 130 W/m2
17:00 11.1 °C 6.6 °C 1016.1 hPa NW 17.7 km/h 43.4 km/h 74 % 0.0 mm 121 W/m2
17:05 11.0 °C 6.5 °C 1016.5 hPa NW 19.3 km/h 43.4 km/h 74 % 0.0 mm 113 W/m2
17:10 10.9 °C 6.4 °C 1016.5 hPa NW 20.9 km/h 43.4 km/h 74 % 0.0 mm 148 W/m2
17:15 10.9 °C 6.4 °C 1016.8 hPa NW 43.4 km/h 43.4 km/h 74 % 0.0 mm 125 W/m2
17:20 10.9 °C 6.4 °C 1016.8 hPa NW 32.2 km/h 43.4 km/h 74 % 0.0 mm 123 W/m2
17:25 10.8 °C 6.4 °C 1017.2 hPa WNW 14.5 km/h 48.3 km/h 74 % 0.0 mm 118 W/m2
17:30 10.8 °C 6.4 °C 1017.2 hPa WNW 24.1 km/h 48.3 km/h 74 % 0.0 mm 105 W/m2
17:40 10.7 °C 6.5 °C 1017.2 hPa WNW 25.7 km/h 46.7 km/h 75 % 0.0 mm 97 W/m2
17:45 10.7 °C 6.4 °C 1017.2 hPa NW 27.4 km/h 46.7 km/h 75 % 0.0 mm 91 W/m2
17:50 10.7 °C 6.6 °C 1017.5 hPa NW 14.5 km/h 43.4 km/h 76 % 0.0 mm 86 W/m2
17:55 10.7 °C 6.6 °C 1017.5 hPa NNW 14.5 km/h 43.4 km/h 76 % 0.0 mm 81 W/m2
18:00 10.6 °C 6.6 °C 1017.5 hPa WNW 29.0 km/h 40.2 km/h 76 % 0.0 mm 77 W/m2
18:05 10.6 °C 6.5 °C 1017.5 hPa WNW 19.3 km/h 40.2 km/h 76 % 0.0 mm 65 W/m2
18:10 10.4 °C 6.6 °C 1017.5 hPa WNW 9.7 km/h 35.4 km/h 77 % 0.0 mm 58 W/m2
18:15 10.4 °C 6.8 °C 1017.8 hPa WNW 32.2 km/h 40.2 km/h 78 % 0.0 mm 47 W/m2
18:20 10.3 °C 6.7 °C 1017.8 hPa NW 32.2 km/h 40.2 km/h 78 % 0.0 mm 39 W/m2
18:25 10.2 °C 6.5 °C 1017.8 hPa WNW 12.9 km/h 38.6 km/h 78 % 0.0 mm 33 W/m2
18:30 10.0 °C 6.3 °C 1017.8 hPa West 17.7 km/h 41.8 km/h 78 % 0.0 mm 30 W/m2
18:35 9.9 °C 6.2 °C 1017.8 hPa West 22.5 km/h 41.8 km/h 78 % 0.0 mm 21 W/m2
18:40 9.8 °C 5.9 °C 1018.2 hPa NW 17.7 km/h 38.6 km/h 77 % 0.0 mm 18 W/m2
18:45 9.7 °C 6.1 °C 1018.2 hPa WNW 41.8 km/h 41.8 km/h 78 % 0.0 mm 12 W/m2
18:50 9.8 °C 5.9 °C 1018.2 hPa NW 24.1 km/h 45.1 km/h 77 % 0.0 mm 7 W/m2
18:55 9.9 °C 6.0 °C 1018.2 hPa NW 11.3 km/h 45.1 km/h 77 % 0.0 mm 5 W/m2
19:00 9.9 °C 6.3 °C 1018.2 hPa WNW 17.7 km/h 38.6 km/h 78 % 0.0 mm 0 W/m2
19:05 9.9 °C 6.3 °C 1018.2 hPa NNW 9.7 km/h 41.8 km/h 78 % 0.0 mm 0 W/m2
19:10 9.9 °C 6.5 °C 1018.5 hPa NW 22.5 km/h 41.8 km/h 79 % 0.0 mm 0 W/m2
19:15 9.9 °C 6.7 °C 1018.5 hPa NW 19.3 km/h 33.8 km/h 80 % 0.0 mm 0 W/m2
19:20 9.9 °C 6.5 °C 1018.5 hPa WNW 9.7 km/h 40.2 km/h 79 % 0.0 mm 0 W/m2
19:25 9.9 °C 6.3 °C 1018.8 hPa NNW 19.3 km/h 48.3 km/h 78 % 0.0 mm 0 W/m2
19:30 9.9 °C 6.2 °C 1018.8 hPa WNW 14.5 km/h 48.3 km/h 78 % 0.0 mm 0 W/m2
19:35 9.8 °C 6.2 °C 1018.8 hPa WNW 19.3 km/h 35.4 km/h 78 % 0.0 mm 0 W/m2
19:40 9.7 °C 6.1 °C 1018.8 hPa WNW 19.3 km/h 35.4 km/h 78 % 0.0 mm 0 W/m2
19:45 9.7 °C 6.2 °C 1018.8 hPa WNW 9.7 km/h 37.0 km/h 79 % 0.0 mm 0 W/m2
19:50 9.6 °C 6.0 °C 1019.2 hPa WNW 22.5 km/h 41.8 km/h 78 % 0.0 mm 0 W/m2
19:55 9.6 °C 5.9 °C 1019.2 hPa NW 25.7 km/h 41.8 km/h 78 % 0.0 mm 0 W/m2
20:00 9.6 °C 5.9 °C 1019.2 hPa NW 17.7 km/h 41.8 km/h 78 % 0.0 mm 0 W/m2
20:05 9.5 °C 5.7 °C 1019.5 hPa NW 22.5 km/h 41.8 km/h 77 % 0.0 mm 0 W/m2
20:10 9.5 °C 5.7 °C 1019.5 hPa NW 9.7 km/h 37.0 km/h 77 % 0.0 mm 0 W/m2
20:15 9.4 °C 5.6 °C 1019.5 hPa NW 12.9 km/h 37.0 km/h 77 % 0.0 mm 0 W/m2
20:20 9.3 °C 5.6 °C 1019.2 hPa NNW 12.9 km/h 33.8 km/h 78 % 0.0 mm 0 W/m2
20:25 9.3 °C 5.7 °C 1019.5 hPa NW 11.3 km/h 33.8 km/h 78 % 0.0 mm 0 W/m2
20:30 9.3 °C 5.6 °C 1019.5 hPa NW 20.9 km/h 25.7 km/h 78 % 0.0 mm 0 W/m2
20:35 9.2 °C 5.6 °C 1019.5 hPa NW 11.3 km/h 29.0 km/h 78 % 0.0 mm 0 W/m2
20:40 9.1 °C 5.6 °C 1019.5 hPa WNW 11.3 km/h 29.0 km/h 79 % 0.0 mm 0 W/m2
20:45 9.1 °C 5.7 °C 1019.5 hPa West 12.9 km/h 25.7 km/h 79 % 0.0 mm 0 W/m2
20:50 9.1 °C 5.7 °C 1019.5 hPa NW 9.7 km/h 25.7 km/h 79 % 0.0 mm 0 W/m2
20:55 9.1 °C 5.8 °C 1019.5 hPa NW 12.9 km/h 25.7 km/h 80 % 0.0 mm 0 W/m2
21:00 9.2 °C 5.7 °C 1019.9 hPa West 11.3 km/h 27.4 km/h 79 % 0.0 mm 0 W/m2
21:05 9.1 °C 5.7 °C 1019.9 hPa West 12.9 km/h 29.0 km/h 79 % 0.0 mm 0 W/m2
21:10 9.1 °C 5.6 °C 1020.2 hPa North 20.9 km/h 29.0 km/h 79 % 0.0 mm 0 W/m2
21:15 9.1 °C 5.6 °C 1020.2 hPa NW 11.3 km/h 25.7 km/h 79 % 0.0 mm 0 W/m2
21:20 8.9 °C 5.7 °C 1020.2 hPa NW 8.0 km/h 22.5 km/h 80 % 0.0 mm 0 W/m2
21:25 8.9 °C 5.7 °C 1020.2 hPa WNW 8.0 km/h 19.3 km/h 80 % 0.0 mm 0 W/m2
21:30 8.9 °C 5.9 °C 1020.2 hPa WNW 8.0 km/h 19.3 km/h 81 % 0.0 mm 0 W/m2
21:40 9.0 °C 5.9 °C 1020.5 hPa NW 16.1 km/h 25.7 km/h 81 % 0.0 mm 0 W/m2
21:45 9.0 °C 5.9 °C 1020.5 hPa NNW 6.4 km/h 25.7 km/h 81 % 0.0 mm 0 W/m2
21:50 8.9 °C 6.0 °C 1020.5 hPa WNW 8.0 km/h 20.9 km/h 82 % 0.0 mm 0 W/m2
21:55 9.0 °C 6.1 °C 1020.5 hPa NW 16.1 km/h 27.4 km/h 82 % 0.0 mm 0 W/m2
22:00 9.1 °C 6.0 °C 1020.9 hPa NW 12.9 km/h 27.4 km/h 81 % 0.0 mm 0 W/m2
22:05 9.1 °C 6.0 °C 1021.2 hPa NW 8.0 km/h 22.5 km/h 81 % 0.0 mm 0 W/m2
22:10 9.0 °C 5.7 °C 1021.2 hPa NW 17.7 km/h 22.5 km/h 80 % 0.0 mm 0 W/m2
22:15 8.9 °C 5.6 °C 1021.2 hPa West 14.5 km/h 27.4 km/h 80 % 0.0 mm 0 W/m2
22:20 8.9 °C 5.6 °C 1021.2 hPa WNW 8.0 km/h 27.4 km/h 80 % 0.0 mm 0 W/m2
22:30 8.9 °C 5.4 °C 1021.2 hPa WNW 3.2 km/h 20.9 km/h 79 % 0.0 mm 0 W/m2
22:40 8.8 °C 5.3 °C 1021.2 hPa WNW 14.5 km/h 24.1 km/h 79 % 0.0 mm 0 W/m2
22:45 8.8 °C 5.3 °C 1021.2 hPa NW 11.3 km/h 24.1 km/h 79 % 0.0 mm 0 W/m2
22:50 8.8 °C 5.2 °C 1021.2 hPa NW 19.3 km/h 30.6 km/h 78 % 0.0 mm 0 W/m2
22:55 8.7 °C 5.2 °C 1021.2 hPa NW 9.7 km/h 30.6 km/h 79 % 0.0 mm 0 W/m2
23:00 8.6 °C 5.2 °C 1021.6 hPa NW 11.3 km/h 24.1 km/h 79 % 0.0 mm 0 W/m2
23:05 8.6 °C 5.2 °C 1021.6 hPa WNW 9.7 km/h 24.1 km/h 79 % 0.0 mm 0 W/m2
23:10 8.7 °C 5.3 °C 1021.6 hPa WNW 4.8 km/h 20.9 km/h 79 % 0.0 mm 0 W/m2
23:15 8.8 °C 5.2 °C 1021.6 hPa West 8.0 km/h 29.0 km/h 78 % 0.0 mm 0 W/m2
23:20 8.8 °C 5.2 °C 1021.6 hPa West 16.1 km/h 29.0 km/h 78 % 0.0 mm 0 W/m2
23:25 8.7 °C 5.3 °C 1021.6 hPa WNW 11.3 km/h 20.9 km/h 79 % 0.0 mm 0 W/m2
23:30 8.7 °C 5.2 °C 1021.6 hPa WNW 11.3 km/h 22.5 km/h 79 % 0.0 mm 0 W/m2
23:35 8.7 °C 5.3 °C 1021.6 hPa West 6.4 km/h 22.5 km/h 79 % 0.0 mm 0 W/m2
23:40 8.7 °C 5.3 °C 1021.6 hPa NW 6.4 km/h 17.7 km/h 79 % 0.0 mm 0 W/m2
23:45 8.7 °C 5.4 °C 1021.6 hPa WNW 3.2 km/h 17.7 km/h 80 % 0.0 mm 0 W/m2
23:50 8.6 °C 5.4 °C 1021.6 hPa WNW 6.4 km/h 16.1 km/h 80 % 0.0 mm 0 W/m2
23:55 8.6 °C 5.4 °C 1021.6 hPa WNW 9.7 km/h 19.3 km/h 80 % 0.0 mm 0 W/m2
Avec l'autorisation de Weather Underground - 1.75 mb